Cloud_Cover
100 100 100 100 100 100 100 100 100 100 55 100 100 100 100 100 100 100 100 100 100 100 63 5 5 5 5 5 16 5 5 5 5 100 100 100 100 100 100 100 100 100 100 100
100 100 100 100 97 95 67 99 100 100 60 100 100 100 100 100 100 100 100 100 100 100 99 24 15 5 5 6 5 5 5 5 6 68 100 100 100 100 100 100 100 100 100 70
100 100 100 76 34 99 100 100 100 100 100 100 100 100 100 100 100 100 100 100 95 63 66 24 5 5 14 5 5 5 5 5 37 83 88 71 68 98 100 100 97 87 39 5
100 100 100 63 100 100 96 100 100 100 100 100 100 100 100 100 100 100 100 100 8 32 5 5 5 6 6 5 5 5 5 5 78 88 82 100 100 100 99 44 10 6 5 5
100 100 100 100 100 100 100 100 100 100 100 100 100 100 100 100 100 100 99 23 13 42 15 5 5 5 5 5 5 24 5 10 60 94 98 100 100 98 89 88 95 98 13 5
100 100 68 100 100 100 100 100 100 100 100 100 100 100 100 100 99 94 100 88 76 81 98 17 5 5 5 5 86 87 58 48 68 98 100 100 93 98 100 96 19 5 5 5
100 100 58 100 100 100 100 100 100 100 100 100 100 98 88 94 100 100 100 100 100 67 6 5 5 9 53 8 100 79 99 77 100 100 100 100 100 100 93 94 73 21 10 5
100 100 99 100 100 100 100 97 100 100 100 100 57 100 88 100 100 100 99 95 19 5 5 5 5 78 72 49 36 50 98 100 100 100 100 100 99 19 5 9 5 53 5 5
100 100 100 100 100 100 100 100 100 100 100 100 100 81 87 98 89 9 14 44 61 5 5 46 5 44 95 46 54 98 100 100 100 100 100 98 40 5 5 8 13 10 5 27
100 100 100 100 100 100 100 100 100 100 100 100 100 100 68 98 20 44 17 48 99 52 5 35 90 98 100 87 39 98 99 100 100 100 86 59 12 9 5 5 5 5 5 22
100 98 100 100 100 92 98 100 80 92 100 100 100 100 100 18 5 13 81 26 100 100 99 86 98 100 92 94 78 67 100 100 100 100 100 83 50 40 8 14 5 5 5 5
97 100 100 100 100 36 46 73 96 99 100 100 100 97 8 5 13 61 58 5 54 88 89 99 100 100 100 84 99 90 100 100 100 100 100 66 73 43 71 51 93 54 12 30
100 100 85 79 100 87 92 100 90 99 100 100 100 74 5 5 5 19 5 16 18 47 93 100 100 100 100 100 100 100 100 100 100 100 95 90 62 30 83 100 100 99 10 95
100 100 100 6 6 12 6 84 100 100 100 100 100 31 12 74 23 33 5 7 21 75 100 100 100 100 100 100 100 100 100 100 100 100 100 96 58 59 63 79 90 79 98 53
94 40 13 20 96 88 64 100 100 100 100 100 75 93 60 70 95 5 5 5 61 100 100 100 100 100 100 100 100 100 100 100 99 92 99 91 63 75 66 86 100 100 100 76
7 95 100 99 94 57 99 100 100 84 26 7 5 5 5 25 75 13 5 34 98 90 100 100 100 100 100 100 100 100 99 94 75 52 94 61 25 8 64 80 99 100 84 11
13 94 74 8 93 100 83 7 7 5 5 7 8 5 9 58 92 78 84 70 96 99 100 100 100 100 100 100 100 89 64 54 53 54 54 56 54 34 40 58 6 14 5 33
26 14 33 5 35 96 100 93 16 5 5 13 5 36 75 93 100 98 87 100 100 100 100 100 100 100 100 100 100 90 100 100 78 90 98 97 36 16 17 15 24 37 96 54
5 48 74 72 23 29 16 5 5 5 5 5 5 5 50 6 27 45 98 100 100 100 100 100 100 100 100 100 100 100 100 79 82 89 96 67 58 49 50 45 40 65 59 71
100 86 100 100 21 5 5 5 5 5 5 5 5 49 23 53 88 100 100 100 100 100 100 100 100 100 100 100 100 99 100 84 91 80 77 100 66 63 56 68 62 76 68 87
100 100 100 100 100 68 23 5 5 5 5 5 54 91 87 94 100 100 100 100 100 100 100 100 100 100 100 100 100 100 100 100 100 100 100 100 100 100 100 99 50 97 98 99
100 100 100 100 100 100 56 5 40 96 21 89 100 100 100 100 100 100 100 100 100 100 100 100 100 100 100 100 100 100 100 100 100 100 100 100 100 100 100 95 97 100 75 99
100 100 100 100 91 98 63 38 46 87 100 100 100 100 100 100 100 100 100 100 100 100 100 98 98 100 100 100 100 100 100 100 100 100 100 100 100 100 70 60 98 57 94 99
100 100 100 100 100 100 100 100 100 100 100 100 100 100 100 100 100 100 100 100 100 100 100 99 100 100 100 100 100 100 100 100 100 100 100 100 98 48 6 94 100 62 73 95
100 100 100 100 100 100 100 100 100 100 100 100 100 100 100 99 100 100 100 100 100 100 100 100 100 100 100 100 100 100 100 100 100 100 100 97 60 42 52 53 52 65 87 92
100 100 100 100 100 100 100 100 100 100 100 100 100 100 99 100 100 100 100 100 100 100 100 100 100 100 100 100 100 100 100 100 100 100 100 34 45 51 49 63 51 57 100 96
100 100 100 100 100 100 100 100 100 100 100 100 100 100 100 100 100 100 100 100 100 100 100 100 100 100 100 100 100 100 100 100 100 92 9 40 36 46 53 51 98 100 100 100